Addison, TX

6:07 AM CST on February 11, 2016 (GMT -0600)
Addison

Weather History for KADS - March, 2013

Change the Weather History Date:

Wednesday, March 27, 2013

  Actual Average Record
Temperature  
Mean Temperature 55 °F -  
Max Temperature 68 °F 68 °F 80 °F (2008)
Min Temperature 42 °F 50 °F 35 °F (2009)
Degree Days  
Heating Degree Days 10    
Growing Degree Days 5 (Base 50)    
Moisture  
Dew Point 26 °F    
Average Humidity 36    
Maximum Humidity 42    
Minimum Humidity 26    
Precipitation  
Precipitation 0.00 in - - ()
Sea Level Pressure  
Sea Level Pressure 30.23 in    
Wind  
Wind Speed 11 mph (SSE)    
Max Wind Speed 24 mph    
Max Gust Speed 32 mph    
Visibility 12 miles    
Events      
Averages and records for this station are not official NWS values.
T = Trace of Precipitation, MM = Missing Value Source: NWS Daily Summary

Daily Weather History Graph

Daily Weather History Graph

Search for Another Location

Airport or City:

Trip Planner

Search our weather history database for the weather conditions in past years. The results will help you decide how hot, cold, wet, or windy it might be!

Date:

Astronomy

Mar. 27, 2013 Rise Set
Actual Time 7:21 AM CDT 7:44 PM CDT
Civil Twilight 6:56 AM CDT 8:08 PM CDT
Nautical Twilight 6:27 AM CDT 8:38 PM CDT
Astronomical Twilight 5:58 AM CDT 9:07 PM CDT
Moon 8:24 PM CDT (3/27) 7:15 AM CDT (3/27)
Length of Visible Light 13h 12m
Length of Day
12h 22m
Full, 100% of the Moon is Illuminated
Mar 27
Full
Apr 2
Last Quarter
Apr 10
New
Apr 18
First Quarter
Apr 25
Full

Hourly Weather History & Observations

Time (CDT) Temp. Windchill Dew Point Humidity Pressure Visibility Wind Dir Wind Speed Gust Speed Precip Events Conditions
12:15 AM 46.4 °F 41.5 °F 19.4 °F 34% 30.31 in 10.0 mi SE 10.4 mph - N/A   Clear
12:35 AM 46.4 °F 41.1 °F 19.4 °F 34% 30.30 in 10.0 mi SE 11.5 mph 16.1 mph N/A   Clear
12:55 AM 46.4 °F 41.5 °F 19.4 °F 34% 30.30 in 10.0 mi SE 10.4 mph - N/A   Clear
1:15 AM 46.4 °F 41.9 °F 19.4 °F 34% 30.30 in 10.0 mi SE 9.2 mph - N/A   Clear
1:35 AM 46.4 °F 42.4 °F 19.4 °F 34% 30.29 in 10.0 mi SE 8.1 mph - N/A   Clear
1:55 AM 44.6 °F 39.2 °F 19.4 °F 37% 30.29 in 10.0 mi SE 10.4 mph - N/A   Clear
2:15 AM 44.6 °F 38.8 °F 19.4 °F 37% 30.29 in 10.0 mi SE 11.5 mph 16.1 mph N/A   Clear
2:35 AM 44.6 °F 39.2 °F 19.4 °F 37% 30.28 in 10.0 mi SE 10.4 mph - N/A   Clear
2:55 AM 44.6 °F 39.7 °F 19.4 °F 37% 30.28 in 10.0 mi SE 9.2 mph - N/A   Clear
3:15 AM 44.6 °F 40.2 °F 19.4 °F 37% 30.27 in 10.0 mi SE 8.1 mph - N/A   Clear
3:35 AM 44.6 °F 39.7 °F 19.4 °F 37% 30.26 in 10.0 mi SE 9.2 mph - N/A   Clear
3:55 AM 44.6 °F 39.7 °F 19.4 °F 37% 30.25 in 10.0 mi SE 9.2 mph - N/A   Clear
4:15 AM 44.6 °F 39.7 °F 19.4 °F 37% 30.25 in 10.0 mi SE 9.2 mph - N/A   Clear
4:35 AM 42.8 °F 38.0 °F 19.4 °F 39% 30.25 in 10.0 mi SE 8.1 mph - N/A   Clear
4:55 AM 42.8 °F 38.0 °F 19.4 °F 39% 30.26 in 10.0 mi SE 8.1 mph - N/A   Clear
5:15 AM 44.6 °F 39.2 °F 19.4 °F 37% 30.26 in 10.0 mi SSE 10.4 mph - N/A   Clear
5:35 AM 44.6 °F 38.8 °F 19.4 °F 37% 30.27 in 10.0 mi South 11.5 mph - N/A   Clear
5:51 AM 42.8 °F 36.6 °F 17.6 °F 36% 30.27 in 15.0 mi SSE 11.5 mph 16.1 mph N/A   Clear
5:55 AM 42.8 °F 36.6 °F 19.4 °F 39% 30.27 in 10.0 mi SSE 11.5 mph - N/A   Clear
6:50 AM 42.8 °F 38.0 °F 19.4 °F 39% 30.29 in 13.0 mi SSE 8.1 mph 19.6 mph N/A   Clear
7:47 AM 42.8 °F 37.5 °F 21.2 °F 42% 30.30 in 13.0 mi SSE 9.2 mph - N/A   Clear
8:47 AM 46.4 °F 40.7 °F 23.0 °F 40% 30.29 in 13.0 mi SSE 12.7 mph - N/A   Clear
9:48 AM 51.8 °F - 26.6 °F 38% 30.31 in 15.0 mi South 13.8 mph 20.7 mph N/A   Clear
10:47 AM 55.4 °F - 28.4 °F 36% 30.29 in 13.0 mi South 11.5 mph 20.7 mph N/A   Clear
11:50 AM 60.8 °F - 26.6 °F 27% 30.28 in 13.0 mi South 11.5 mph 31.1 mph N/A   Clear
12:47 PM 62.6 °F - 26.6 °F 26% 30.26 in 13.0 mi South 17.3 mph 26.5 mph N/A   Partly Cloudy
1:52 PM 66.2 °F - 35.6 °F 32% 30.22 in 15.0 mi South 13.8 mph 27.6 mph N/A   Partly Cloudy
2:53 PM 68.0 °F - 32.0 °F 26% 30.18 in 13.0 mi South 15.0 mph 25.3 mph N/A   Partly Cloudy
3:47 PM 68.0 °F - 33.8 °F 28% 30.15 in 13.0 mi South 15.0 mph 32.2 mph N/A   Partly Cloudy
4:54 PM 68.0 °F - 35.6 °F 30% 30.12 in 15.0 mi South 24.2 mph 32.2 mph N/A   Scattered Clouds
5:54 PM 68.0 °F - 35.6 °F 30% 30.11 in 13.0 mi South 17.3 mph 27.6 mph N/A   Scattered Clouds
6:47 PM 68.0 °F - 35.6 °F 30% 30.10 in 13.0 mi South 164.6 mph 28.8 mph N/A   Partly Cloudy
7:54 PM 66.2 °F - 35.6 °F 32% 30.09 in 15.0 mi SSE 15.0 mph 20.7 mph N/A   Partly Cloudy
8:47 PM 64.4 °F - 37.4 °F 37% 30.12 in 13.0 mi SE 10.4 mph - N/A   Clear
9:47 PM 62.6 °F - 39.2 °F 42% 30.14 in 13.0 mi SSE 11.5 mph - N/A   Clear
10:15 PM 62.6 °F - 35.6 °F 37% 30.14 in 10.0 mi South 11.5 mph 17.3 mph N/A   Clear
10:35 PM 60.8 °F - 37.4 °F 42% 30.15 in 10.0 mi South 10.4 mph - N/A   Clear
10:55 PM 60.8 °F - 37.4 °F 42% 30.15 in 10.0 mi South 9.2 mph - N/A   Clear
11:15 PM 60.8 °F - 37.4 °F 42% 30.16 in 10.0 mi South 6.9 mph - N/A   Clear
11:35 PM 60.8 °F - 37.4 °F 42% 30.16 in 10.0 mi South 8.1 mph - N/A   Clear
11:55 PM 60.8 °F - 37.4 °F 42% 30.16 in 10.0 mi South 8.1 mph - N/A   Clear